SCP
0 0 0 0 0 0 0 0 0 0 0 0 0 0 0 0 0 0 0 0 0 0 0 0 0 0 0 0 0 0 0 0 0 0 0 0 0 0 0 0 0 0 0
0 0 0 0 0 0 0 0 0 0 0 0 0 0 0 0 0 0 0 0 0 0 0 0 0 0 0 0 0 0 0 0 0 0 0 0 0 0 0 0 0 0 0
0 0 0 0 0 0 0 0 0 0 0 0 0 0 0 0 0 0 0 0 0 0 0 0 0 0 0 0 0 0 0 0 0 0 0 0 0 0 0 0 0 0 0
0 0 0 0 0 0 0 0 0 0 0 0 0 0 0 0 0 0 0 0 0 0 0 0 0 0 0 0 0 0 0 0 0 0 0 0 0 0 0 0 0 0 0
0 0 0 0 0 0 0 0 0 0 0 0 0 0 0 0 0 0 0 0 0 0 0 0 0 0 0 0 0 0 0 0 0 0 0 0 0 0 0 1 0 0 0
0 0 0 0 0 0 0 0 0 0 0 0 0 0 0 0 0 0 0 0 0 0 0 0 0 0 0 0 0 0 0 0 0 0 0 0 0 0 0 0 1 1 0
0 0 0 0 0 0 0 0 0 0 0 0 0 0 0 0 0 0 0 0 0 0 0 0 0 0 0 0 0 0 0 0 0 0 0 0 0 0 0 0 0 1 1
0 0 0 0 0 0 0 0 0 0 0 0 0 0 0 0 0 0 0 0 0 0 0 0 0 0 0 0 0 0 0 0 0 0 0 0 0 0 0 0 0 0 1
0 0 0 0 0 0 0 0 0 0 0 0 0 0 0 0 0 0 0 0 0 0 0 0 0 0 0 0 0 0 0 0 0 0 0 0 0 0 0 0 0 0 0
0 0 0 0 0 0 0 0 0 0 0 0 0 0 0 0 0 0 0 0 0 0 0 0 0 0 0 0 0 0 0 0 0 0 0 0 0 0 0 0 0 0 0
0 0 0 0 0 0 0 0 0 0 0 0 0 0 0 0 0 0 0 0 0 0 0 0 0 0 0 0 0 0 0 0 0 0 0 0 0 0 0 0 0 0 0
0 0 0 0 0 0 0 0 0 0 0 0 0 0 0 0 0 0 0 0 0 0 0 0 0 0 0 0 0 0 0 0 0 0 0 0 0 0 0 0 0 0 0
0 0 0 0 0 0 0 0 0 0 0 0 0 0 0 0 0 0 0 0 0 0 0 0 0 0 0 0 0 0 0 0 0 0 0 0 0 0 0 0 0 0 0
0 0 0 0 0 0 0 0 0 0 0 0 0 0 0 0 0 0 0 0 0 0 0 0 0 0 0 0 0 0 0 0 0 0 0 0 0 0 0 0 0 0 0
0 0 0 0 0 0 0 0 0 0 0 0 0 0 0 0 0 0 0 0 0 0 0 0 0 0 0 0 0 0 0 0 0 0 0 0 0 0 0 0 0 0 0
0 0 0 0 0 0 0 0 0 0 0 0 0 0 0 0 0 0 0 0 0 0 0 0 0 0 0 0 0 0 0 0 0 0 0 0 0 0 0 0 0 0 0
0 0 0 0 0 0 0 0 0 0 0 0 0 0 0 0 0 0 0 0 0 0 0 0 0 0 0 0 0 0 0 0 0 0 0 0 0 0 0 0 0 0 0
0 0 0 0 0 0 0 0 0 0 0 0 0 0 0 0 0 0 0 0 0 0 0 0 0 0 0 0 0 0 0 0 0 0 0 0 0 0 0 0 0 0 0
0 0 0 0 0 0 0 0 0 0 0 0 0 0 0 0 0 0 0 0 0 0 0 0 0 0 0 0 0 0 0 0 0 0 0 0 0 0 0 0 0 0 0
0 0 0 0 0 0 0 0 0 0 0 0 0 0 0 0 0 0 0 0 0 0 0 0 0 0 0 0 0 0 0 0 0 0 0 0 0 0 0 0 0 0 0
0 0 0 0 0 0 0 0 0 0 0 0 0 0 0 0 0 0 0 0 0 0 0 0 0 0 0 0 0 0 0 0 0 0 0 0 0 0 0 0 0 0 0
0 0 0 0 0 0 0 0 0 0 0 0 0 0 0 0 0 0 0 0 0 0 0 0 0 0 0 0 0 0 -0 0 0 0 0 0 0 0 0 0 0 0 0
0 0 0 0 0 0 0 0 0 0 0 0 0 0 0 0 0 0 0 0 0 0 0 0 0 0 0 0 0 0 0 0 0 0 0 0 0 0 0 0 0 0 0
0 0 0 0 0 0 0 0 0 0 0 0 0 0 0 0 0 0 0 0 0 0 0 0 0 0 0 0 0 0 0 0 0 0 0 0 0 0 0 0 0 0 0
0 0 0 0 0 0 0 0 0 0 0 0 0 0 0 0 0 0 0 0 0 0 0 0 0 0 0 0 0 0 0 0 0 0 0 0 0 0 0 0 0 0 0
0 0 0 0 0 0 0 0 0 0 0 0 0 0 0 0 0 0 0 0 0 0 0 0 0 0 0 0 0 0 0 0 0 0 0 0 0 0 0 0 0 0 0
Wind_Speed
6 8 10 12 12 13 14 14 14 14 14 14 14 14 14 14 15 15 14 13 13 12 13 13 13 12 11 11 11 11 11 11 11 11 11 10 8 6 4 4 5 6 6
8 10 11 11 12 13 13 14 14 14 14 15 15 15 15 15 15 15 15 15 15 14 14 15 15 15 14 13 12 12 12 11 11 10 11 10 9 7 4 2 4 4 8
8 10 10 10 11 12 13 13 14 14 14 14 14 14 14 14 14 14 15 15 15 15 15 16 16 16 16 15 14 13 13 13 13 12 13 7 6 4 4 0 2 5 7
8 10 9 9 11 12 12 13 13 13 13 13 13 13 13 13 13 13 14 14 14 14 15 15 15 16 16 16 15 15 15 15 15 15 8 5 5 2 1 2 4 5 6
8 10 8 10 11 12 12 12 13 13 13 13 13 13 13 13 13 14 14 14 14 14 14 15 15 15 15 15 15 15 15 16 16 13 7 6 5 4 5 6 6 6 6
8 10 7 10 11 11 12 12 12 12 12 12 12 13 13 13 14 14 14 14 14 15 15 15 15 15 15 14 14 15 15 16 13 8 8 7 5 6 8 8 8 8 7
7 9 7 10 10 11 11 11 11 12 12 12 12 12 13 13 14 14 15 15 15 15 15 15 15 15 15 15 15 15 15 16 10 7 7 6 5 7 9 9 10 10 9
8 8 7 9 10 11 11 11 11 11 11 11 12 12 12 13 14 14 15 15 15 15 16 16 16 16 16 15 15 15 16 15 11 9 8 6 7 8 9 10 11 11 11
8 8 7 6 8 10 10 10 10 11 11 11 11 11 11 12 13 14 14 14 14 15 15 16 16 16 17 16 15 16 17 17 8 6 8 5 9 11 11 11 12 13 13
7 7 7 7 7 7 6 9 10 10 10 10 10 8 7 9 10 12 12 13 14 15 15 16 17 17 17 16 16 16 17 12 7 8 6 7 14 14 14 14 14 15 15
7 7 7 7 6 7 7 8 8 8 6 6 6 5 5 5 5 6 9 13 15 16 16 17 18 17 17 16 17 17 13 6 9 6 5 11 16 16 16 16 16 16 16
10 8 7 7 7 7 6 6 4 4 4 3 3 3 3 3 4 5 8 12 13 15 16 17 17 15 12 7 10 13 5 8 6 6 7 16 17 17 17 17 18 18 18
10 9 8 8 7 6 4 5 3 3 3 4 4 2 2 3 3 4 3 5 6 9 7 9 9 6 7 6 6 6 6 6 4 5 8 17 18 18 18 18 19 19 19
11 11 9 9 8 7 6 4 4 3 3 3 3 2 2 2 3 3 3 3 3 3 4 5 4 6 7 7 7 7 7 5 5 5 7 16 18 19 19 19 19 19 20
13 13 11 10 9 7 6 5 5 4 4 4 3 2 3 3 3 3 2 3 3 3 4 5 5 6 7 7 7 8 8 8 8 7 6 14 18 19 20 20 20 20 20
13 14 12 11 9 8 6 5 5 4 4 4 4 4 3 3 3 3 3 2 3 3 3 4 5 6 5 6 7 8 8 9 8 8 7 9 15 18 19 20 20 20 21
13 13 13 12 10 10 8 7 5 5 5 4 4 5 4 3 3 3 2 2 2 3 3 3 5 4 5 6 7 8 8 8 10 10 9 6 7 11 16 18 19 20 21
12 14 14 12 11 10 8 7 5 5 5 5 5 5 5 4 3 3 2 2 2 2 2 3 3 4 5 6 6 7 7 9 11 10 8 6 5 5 9 16 18 19 20
14 14 14 11 12 10 8 7 6 5 5 5 5 5 5 5 4 3 2 1 1 1 2 3 3 3 5 6 7 7 8 9 10 10 8 7 6 6 5 11 14 15 19
14 14 14 12 11 10 7 5 5 5 4 4 5 5 7 5 5 3 2 1 1 1 1 2 4 4 4 6 9 9 9 10 9 7 7 5 4 6 6 6 6 7 16
14 15 16 14 12 10 8 7 6 6 6 5 5 7 7 6 6 4 3 2 1 0 1 3 3 5 4 4 5 6 7 8 7 2 3 5 6 7 6 6 4 5 7
16 16 16 16 14 13 9 7 4 6 5 6 5 6 7 7 6 5 4 3 2 1 2 3 3 3 3 3 3 5 7 6 4 5 7 6 6 4 4 6 7 8 7
16 17 15 16 14 13 11 7 5 4 4 4 6 6 7 7 7 6 5 4 3 3 2 3 3 3 3 3 2 2 3 5 7 6 4 5 4 3 5 6 8 8 9
16 14 14 15 15 14 13 11 11 10 8 8 7 7 7 8 7 7 6 5 4 3 3 4 4 3 3 3 3 3 4 4 5 9 5 4 5 7 7 7 7 7 9
14 14 14 14 14 15 14 14 12 9 7 5 6 8 8 7 7 7 6 5 5 4 4 4 4 4 4 4 4 3 3 4 6 7 12 8 6 5 6 6 6 7 9
12 12 14 15 15 15 16 14 14 12 10 10 9 9 7 5 5 7 7 6 5 4 4 4 4 5 4 5 5 4 4 5 4 6 10 17 17 10 7 6 7 8 8
Wind_Direction
92 76 56 60 61 62 63 64 64 64 65 65 62 60 58 56 54 50 46 42 38 35 33 30 29 31 29 23 17 13 11 10 5 359 350 336 314 299 314 347 342 336 9
102 89 68 70 69 68 68 67 65 64 64 63 61 60 58 55 53 50 44 39 37 34 33 31 29 28 26 21 15 10 7 4 358 348 334 315 289 260 257 327 343 329 338
110 103 85 79 80 77 74 72 70 69 67 65 63 61 59 55 53 50 46 41 37 34 32 31 28 26 22 17 14 10 6 1 353 342 323 299 294 246 208 333 342 328 328
98 86 85 87 86 83 80 78 75 73 71 68 66 64 61 58 54 50 46 41 37 33 30 27 25 22 18 13 10 8 7 2 349 333 317 320 336 41 102 21 352 337 325
102 100 94 96 94 90 86 82 79 76 73 70 68 65 63 59 55 50 47 42 37 32 29 25 22 19 15 10 7 4 3 359 345 327 314 321 334 13 25 11 357 340 320
108 102 101 103 100 95 91 86 83 79 76 72 69 66 63 59 55 50 46 41 36 31 27 23 19 15 10 6 2 359 356 351 339 326 323 325 335 7 6 359 348 335 319
113 104 105 102 101 98 94 90 86 83 80 76 73 69 65 60 55 50 45 40 35 31 26 21 16 11 6 2 358 356 351 343 332 318 314 313 322 346 343 341 336 330 322
115 109 105 100 98 96 95 93 90 87 83 80 77 73 68 63 57 50 43 38 34 29 25 21 15 10 4 0 357 354 346 337 328 316 309 307 322 330 326 329 329 325 321
129 132 132 131 110 102 98 96 94 90 85 80 76 74 71 66 60 51 43 37 33 28 24 20 14 8 4 360 358 353 343 334 327 311 312 323 350 342 328 325 324 322 318
145 149 150 150 139 128 111 105 101 95 88 82 75 70 67 68 65 57 42 37 33 27 23 19 12 8 3 359 358 352 342 340 344 331 325 339 352 343 332 326 321 318 315
166 161 156 155 149 139 135 130 121 110 103 96 84 70 55 54 49 61 45 35 31 25 20 16 11 10 6 1 357 351 347 352 334 324 320 340 343 336 327 321 316 312 310
180 173 164 163 155 154 153 153 160 143 126 96 70 56 56 72 57 53 46 35 28 25 18 13 9 9 4 352 346 347 345 338 329 327 328 335 333 328 321 317 313 309 305
179 177 172 168 159 162 152 160 152 132 128 105 78 60 73 66 63 51 46 29 23 27 17 4 0 357 351 341 334 332 332 332 324 323 322 319 320 319 316 312 309 306 303
179 179 173 164 160 164 161 156 148 148 143 128 114 59 76 84 65 55 52 30 28 25 11 4 347 346 340 331 330 327 327 323 316 310 303 310 314 312 311 309 308 305 302
183 175 173 162 164 165 162 163 161 152 144 131 131 97 67 89 78 62 55 38 27 25 16 357 341 338 332 326 324 323 319 314 306 302 303 305 307 309 309 308 308 306 304
184 173 167 166 166 165 166 168 154 147 141 142 135 122 94 91 90 79 64 44 38 27 7 342 331 328 322 319 317 316 310 304 301 300 297 302 304 307 310 310 310 309 307
180 168 166 168 167 169 172 170 156 148 153 149 141 140 133 116 101 98 84 59 48 16 353 338 332 326 322 321 316 312 306 302 297 294 292 289 294 300 305 310 312 312 312
174 169 168 174 171 173 173 164 152 155 158 154 153 152 143 133 124 118 105 83 50 20 358 337 325 330 322 317 309 303 299 291 286 283 282 282 284 288 297 300 304 307 309
174 169 168 170 171 173 168 159 154 155 161 160 160 157 150 147 147 136 123 113 62 34 356 327 334 330 315 309 301 295 290 284 279 277 274 273 270 269 270 288 294 297 302
170 168 168 169 170 167 160 154 147 157 171 171 168 160 154 160 159 148 146 123 65 32 340 325 321 310 298 296 301 294 284 280 271 266 265 274 283 285 288 291 294 292 300
167 170 172 174 175 170 170 170 165 180 181 180 175 167 166 167 162 162 154 140 130 216 292 312 307 304 303 304 307 304 291 275 270 261 334 328 304 292 297 303 309 311 311
173 174 175 178 179 178 179 178 168 162 181 180 172 169 172 170 169 171 167 163 171 205 267 278 285 298 303 333 336 324 328 326 348 345 299 278 280 291 315 325 321 308 302
179 179 181 180 180 179 174 173 160 132 126 160 175 179 181 175 172 170 171 171 183 196 227 250 265 273 279 306 297 297 311 306 309 281 279 288 283 327 313 299 292 293 299
182 176 178 180 180 180 177 182 177 179 181 185 178 176 176 174 173 174 176 177 185 195 217 235 241 235 250 265 279 239 230 261 300 306 276 253 290 288 277 290 297 300 300
174 176 180 181 184 183 183 187 191 196 188 164 159 163 168 173 176 176 175 176 186 197 213 227 240 235 228 235 239 257 265 264 247 273 293 290 273 257 274 283 290 291 291
172 176 182 189 191 187 187 190 196 197 184 169 167 170 173 172 175 178 175 177 184 194 209 220 231 237 238 242 240 234 235 242 251 261 286 302 302 294 277 261 267 273 275